This is the latest recevied weather packets stored in our database for station/object K7LDN-13. If no packets are shown the sender has not sent any weather packets the latest 10 day(s).
| Time | Temp. | Humidity | Pressure | Rain* | Wind** | Luminosity | Snow |
|---|---|---|---|---|---|---|---|
| 1777681623 | 18.33° C | 24% | 1021.6 hPa | 0 mm | - | 203 W/m² | - |
| 1777681321 | 18.89° C | 25% | 1021.6 hPa | 0 mm | - | 221 W/m² | - |
| 1777681018 | 18.33° C | 25% | 1021.6 hPa | 0 mm | - | 238 W/m² | - |
| 1777680716 | 18.33° C | 24% | 1021.6 hPa | 0 mm | - | 256 W/m² | - |
| 1777680413 | 18.33° C | 24% | 1021.7 hPa | 0 mm | - | 275 W/m² | - |
| 1777680111 | 18.33° C | 25% | 1021.8 hPa | 0 mm | - | 291 W/m² | - |
| 1777679806 | 18.33° C | 25% | 1021.7 hPa | 0 mm | - | 308 W/m² | - |
| 1777679503 | 18.89° C | 24% | 1021.6 hPa | 0 mm | - | 322 W/m² | - |
| 1777679198 | 18.89° C | 24% | 1021.4 hPa | 0 mm | - | 337 W/m² | - |
| 1777678896 | 18.33° C | 25% | 1021.7 hPa | 0 mm | - | 352 W/m² | - |
| 1777678594 | 18.89° C | 23% | 1021.6 hPa | 0 mm | - | 365 W/m² | - |
| 1777678291 | 18.33° C | 23% | 1021.7 hPa | 0 mm | - | 377 W/m² | - |
| 1777677987 | 18.89° C | 24% | 1021.7 hPa | 0 mm | - | 385 W/m² | - |
| 1777677685 | 18.89° C | 23% | 1021.7 hPa | 0 mm | - | 396 W/m² | - |
| 1777677382 | 18.89° C | 25% | 1021.7 hPa | 0 mm | - | 409 W/m² | - |
| 1777677080 | 18.33° C | 23% | 1021.6 hPa | 0 mm | - | 422 W/m² | - |
| 1777676778 | 18.33° C | 23% | 1021.7 hPa | 0 mm | - | 434 W/m² | - |
| 1777676476 | 18.89° C | 22% | 1021.8 hPa | 0 mm | - | 445 W/m² | - |
| 1777676174 | 18.89° C | 24% | 1021.8 hPa | 0 mm | - | 457 W/m² | - |
| 1777675869 | 18.89° C | 23% | 1021.6 hPa | 0 mm | - | 469 W/m² | - |
| 1777675567 | 18.33° C | 22% | 1021.8 hPa | 0 mm | - | 485 W/m² | - |
| 1777675264 | 18.89° C | 22% | 1021.9 hPa | 0 mm | - | 504 W/m² | - |
| 1777674960 | 18.33° C | 23% | 1021.8 hPa | 0 mm | - | 524 W/m² | - |
| 1777674657 | 18.89° C | 23% | 1021.7 hPa | 0 mm | - | 544 W/m² | - |
| 1777674374 | 18.89° C | 21% | 1021.9 hPa | 0 mm | - | 563 W/m² | - |
* Rain latest hour (hover to see other rain measurements)
** Current wind speed in m/s (hover to see current wind gust speed)